Tracking 31027 objects as of 19-Jul-2025
HD Live streaming from Space Station
objects crossing your sky now

HELIOS 1A

Track HELIOS 1A now!
10-day predictions
HELIOS 1A is classified as:


NORAD ID: 23605
Int'l Code: 1995-033A
Perigee: 553.3 km
Apogee: 574.7 km
Inclination: 98.2 °
Period: 95.8 minutes
Semi major axis: 6934 km
RCS: Unknown
Launch date: July 7, 1995
Source: France (FR)
Launch site: FRENCH GUIANA (FRGUI)

Optical reconnaissance; cannot see through clouds or at night.
Your satellite tracking list
COSMOS 2251 DEB
Track 1 satellite(s)




NASA's NSSDC Master Catalog

Two Line Element Set (TLE):
1 23605U 95033A   25189.90216130 0.00002200  00000-0  16223-3 0    07
2 23605  98.2499  53.5267 0015406 137.2307 222.7691 15.03259318    02
Source of the keplerian elements: McCants